When you browse on this site, cookies collect data to enhance your experience and personalize the content and advertising you see.
Visit our Privacy Policy to learn more. By continuing to use the site, you agree to this use of cookies and data.
  • In Italy
  • List of Countries
  • For 7 days
  • Water Temperature
  • Satellite Maps
  • Weather Map
  • Weather Widgets
  • user-avatar
    Login

    Hourly Weather Hrazdan

    Today, 22 March, Friday

    Time Temperature Precipitation Wind Pressure Humidity
    00:00 -1°C° 0 mm 1 mps 611 mmHg 87%
    01:00 -1°C° 0 mm 1 mps 611 mmHg 87%
    02:00 -1°C° 0 mm 1 mps 611 mmHg 87%
    03:00 -2°C° 0 mm 0 mps 611 mmHg 88%
    04:00 -2°C° 0 mm 0 mps 611 mmHg 88%
    05:00 -3°C° 0 mm 0 mps 611 mmHg 87%
    06:00 -3°C° 0 mm 0 mps 611 mmHg 87%
    07:00 -1°C° 0 mm 1 mps 611 mmHg 84%
    08:00 +1°C° 0 mm 1 mps 612 mmHg 80%
    09:00 +2°C° 0 mm 1 mps 612 mmHg 77%
    10:00 +2°C° 0 mm 1 mps 612 mmHg 75%
    11:00 +3°C° 0 mm 1 mps 612 mmHg 73%
    12:00 +4°C° 0 mm 1 mps 611 mmHg 71%
    13:00 +3°C° 0.1 mm 2 mps 611 mmHg 69%
    14:00 +3°C° 0.1 mm 2 mps 611 mmHg 67%
    15:00 +3°C° 0.1 mm 2 mps 611 mmHg 65%
    16:00 +2°C° 0.1 mm 2 mps 610 mmHg 66%
    17:00 +2°C° 0.1 mm 1 mps 610 mmHg 68%
    18:00 +1°C° 0.1 mm 1 mps 610 mmHg 69%
    19:00 0°C° 0 mm 1 mps 610 mmHg 70%
    20:00 0°C° 0 mm 1 mps 610 mmHg 71%
    21:00 -1°C° 0 mm 1 mps 610 mmHg 72%
    22:00 -1°C° 0 mm 1 mps 610 mmHg 71%
    23:00 -2°C° 0 mm 1 mps 610 mmHg 70%

    Tomorrow, 23 March, Saturday

    Time Temperature Precipitation Wind Pressure Humidity
    00:00 -2°C° 0 mm 1 mps 610 mmHg 70%
    01:00 -2°C° 0 mm 1 mps 610 mmHg 70%
    02:00 -2°C° 0 mm 1 mps 610 mmHg 71%
    03:00 -2°C° 0 mm 1 mps 610 mmHg 71%
    04:00 -3°C° 0 mm 1 mps 610 mmHg 72%
    05:00 -5°C° 0 mm 2 mps 610 mmHg 73%
    06:00 -5°C° 0 mm 2 mps 609 mmHg 75%
    07:00 -4°C° 0 mm 2 mps 610 mmHg 71%
    08:00 -2°C° 0 mm 2 mps 610 mmHg 67%
    09:00 -1°C° 0 mm 2 mps 610 mmHg 64%
    10:00 0°C° 0 mm 3 mps 610 mmHg 59%
    11:00 +1°C° 0 mm 3 mps 609 mmHg 55%
    12:00 +1°C° 0 mm 3 mps 609 mmHg 51%
    13:00 +1°C° 0 mm 3 mps 609 mmHg 51%
    14:00 +1°C° 0 mm 3 mps 608 mmHg 51%
    15:00 +2°C° 0 mm 3 mps 608 mmHg 52%
    16:00 +1°C° 0 mm 3 mps 607 mmHg 55%
    17:00 +1°C° 0 mm 2 mps 607 mmHg 59%
    18:00 -1°C° 0 mm 2 mps 607 mmHg 63%
    19:00 +1°C° 0 mm 1 mps 607 mmHg 64%
    20:00 0°C° 0 mm 1 mps 607 mmHg 66%
    21:00 0°C° 0 mm 1 mps 607 mmHg 67%
    22:00 -1°C° 0 mm 1 mps 607 mmHg 67%
    23:00 -1°C° 0 mm 1 mps 606 mmHg 67%

    Day after tomorrow, 24 March, Sunday

    Time Temperature Precipitation Wind Pressure Humidity
    00:00 -1°C° 0 mm 1 mps 606 mmHg 67%
    01:00 -1°C° 0.1 mm 1 mps 606 mmHg 69%
    02:00 -1°C° 0.1 mm 1 mps 606 mmHg 71%
    03:00 -1°C° 0.1 mm 1 mps 605 mmHg 73%
    04:00 -1°C° 0.4 mm 1 mps 605 mmHg 77%
    05:00 -1°C° 0.4 mm 1 mps 605 mmHg 82%
    06:00 -1°C° 0.4 mm 1 mps 605 mmHg 86%
    07:00 -1°C° 0.5 mm 1 mps 605 mmHg 84%
    08:00 0°C° 0.5 mm 1 mps 605 mmHg 83%
    09:00 0°C° 0.5 mm 1 mps 605 mmHg 82%
    10:00 -1°C° 0.3 mm 2 mps 605 mmHg 81%
    11:00 +1°C° 0.3 mm 2 mps 605 mmHg 80%
    12:00 +1°C° 0.3 mm 2 mps 604 mmHg 79%
    13:00 +1°C° 0.8 mm 2 mps 604 mmHg 82%
    14:00 +1°C° 0.8 mm 2 mps 604 mmHg 84%
    15:00 +1°C° 0.8 mm 2 mps 603 mmHg 87%
    16:00 -1°C° 1.2 mm 2 mps 603 mmHg 88%
    17:00 -2°C° 1.2 mm 2 mps 603 mmHg 89%
    18:00 -2°C° 1.2 mm 3 mps 603 mmHg 90%
    19:00 -4°C° 0.7 mm 3 mps 604 mmHg 90%
    20:00 -4°C° 0.7 mm 3 mps 604 mmHg 90%
    21:00 -5°C° 0.7 mm 3 mps 604 mmHg 90%
    22:00 -5°C° 0.8 mm 3 mps 604 mmHg 90%
    23:00 -5°C° 0.8 mm 3 mps 604 mmHg 91%

    25 March, Monday

    Time Temperature Precipitation Wind Pressure Humidity
    00:00 -4°C° 0.8 mm 2 mps 604 mmHg 91%
    01:00 -4°C° 0.3 mm 2 mps 604 mmHg 91%
    02:00 -4°C° 0.3 mm 2 mps 604 mmHg 90%
    03:00 -4°C° 0.3 mm 2 mps 604 mmHg 90%
    04:00 -2°C° 0.1 mm 1 mps 605 mmHg 89%
    05:00 -3°C° 0.1 mm 1 mps 605 mmHg 89%
    06:00 -3°C° 0.1 mm 1 mps 605 mmHg 88%
    07:00 -1°C° 0 mm 1 mps 605 mmHg 86%
    08:00 0°C° 0 mm 1 mps 606 mmHg 85%
    09:00 +1°C° 0 mm 1 mps 606 mmHg 83%
    10:00 +2°C° 0.1 mm 1 mps 606 mmHg 84%
    11:00 +3°C° 0.1 mm 1 mps 606 mmHg 85%
    12:00 +3°C° 0.1 mm 1 mps 606 mmHg 86%
    13:00 +2°C° 0.1 mm 2 mps 605 mmHg 85%
    14:00 +3°C° 0.1 mm 2 mps 605 mmHg 85%
    15:00 +3°C° 0.1 mm 2 mps 605 mmHg 84%
    16:00 +2°C° 0.1 mm 2 mps 605 mmHg 86%
    17:00 0°C° 0.1 mm 3 mps 604 mmHg 87%
    18:00 0°C° 0.1 mm 3 mps 604 mmHg 89%
    19:00 -1°C° 0.1 mm 3 mps 604 mmHg 90%
    20:00 -1°C° 0.1 mm 3 mps 604 mmHg 90%
    21:00 -1°C° 0.1 mm 3 mps 605 mmHg 90%
    22:00 -2°C° 0.1 mm 3 mps 604 mmHg 90%
    23:00 -2°C° 0.1 mm 3 mps 604 mmHg 90%

    26 March, Tuesday

    Time Temperature Precipitation Wind Pressure Humidity
    00:00 -2°C° 0.1 mm 3 mps 604 mmHg 90%
    01:00 -2°C° 0.4 mm 3 mps 604 mmHg 90%
    02:00 -2°C° 0.4 mm 2 mps 604 mmHg 90%
    03:00 -2°C° 0.4 mm 2 mps 604 mmHg 90%
    04:00 -2°C° 0.2 mm 2 mps 604 mmHg 90%
    05:00 -3°C° 0.2 mm 2 mps 604 mmHg 90%
    06:00 -4°C° 0.2 mm 3 mps 604 mmHg 91%
    07:00 -2°C° 0.2 mm 2 mps 604 mmHg 88%
    08:00 -1°C° 0.2 mm 2 mps 604 mmHg 86%
    09:00 +1°C° 0.2 mm 2 mps 605 mmHg 83%
    10:00 +1°C° 0.1 mm 2 mps 604 mmHg 83%
    11:00 +2°C° 0.1 mm 2 mps 604 mmHg 82%
    12:00 +2°C° 0.1 mm 2 mps 604 mmHg 82%
    13:00 +1°C° 0.1 mm 3 mps 603 mmHg 82%
    14:00 +2°C° 0.1 mm 3 mps 603 mmHg 81%
    15:00 +2°C° 0.1 mm 3 mps 603 mmHg 81%
    16:00 +2°C° 0.1 mm 2 mps 603 mmHg 83%
    17:00 +1°C° 0.1 mm 2 mps 603 mmHg 85%
    18:00 +1°C° 0.1 mm 2 mps 603 mmHg 86%
    19:00 -1°C° 0.1 mm 2 mps 604 mmHg 87%
    20:00 -1°C° 0.1 mm 2 mps 604 mmHg 88%
    21:00 0°C° 0.1 mm 1 mps 605 mmHg 90%
    22:00 0°C° 0.1 mm 1 mps 605 mmHg 89%
    23:00 -1°C° 0.1 mm 1 mps 605 mmHg 89%

    27 March, Wednesday

    Time Temperature Precipitation Wind Pressure Humidity
    00:00 -1°C° 0.1 mm 1 mps 605 mmHg 88%
    01:00 -1°C° 0 mm 1 mps 605 mmHg 87%
    02:00 -2°C° 0 mm 1 mps 606 mmHg 86%
    03:00 -2°C° 0 mm 1 mps 606 mmHg 84%
    04:00 -2°C° 0 mm 1 mps 606 mmHg 83%
    05:00 -2°C° 0 mm 1 mps 607 mmHg 82%
    06:00 -2°C° 0 mm 1 mps 607 mmHg 82%
    07:00 -2°C° 0 mm 2 mps 608 mmHg 78%
    08:00 -1°C° 0 mm 2 mps 608 mmHg 75%
    09:00 +2°C° 0 mm 2 mps 609 mmHg 71%
    10:00 +3°C° 0 mm 2 mps 609 mmHg 70%
    11:00 +4°C° 0 mm 2 mps 609 mmHg 69%
    12:00 +4°C° 0 mm 2 mps 609 mmHg 67%
    13:00 +4°C° 0 mm 2 mps 609 mmHg 67%
    14:00 +5°C° 0 mm 2 mps 609 mmHg 66%
    15:00 +5°C° 0 mm 2 mps 609 mmHg 65%
    16:00 +5°C° 0.1 mm 1 mps 609 mmHg 68%
    17:00 +4°C° 0.1 mm 1 mps 609 mmHg 72%
    18:00 +3°C° 0.1 mm 1 mps 609 mmHg 75%
    19:00 +2°C° 0 mm 1 mps 609 mmHg 75%
    20:00 +2°C° 0 mm 1 mps 609 mmHg 76%
    21:00 0°C° 0 mm 0 mps 609 mmHg 77%
    22:00 +1°C° 0 mm 1 mps 609 mmHg 76%
    23:00 +1°C° 0 mm 1 mps 609 mmHg 75%
    Show more